シュヴァスマン-ヴァハマン第3彗星

73P/Schwassmann-Wachmann 3 (2017)

English version
Home page
Updated on February 14, 2017

---------------------------------------------------------------------

・ プロフィール

・ 写真集

・ 軌道要素

  73P/Schwassmann-Wachmann
Epoch 2017 Mar. 28.0 TT = JDT 2457840.5
T 2017 Mar. 16.84614 TT                                 MPCW
q   0.9721753            (2000.0)            P               Q
n   0.18133529     Peri.  199.38998     -0.02249924     +0.98290751
a   3.0913475      Node    69.66280     -0.88959298     +0.06371601
e   0.6855173      Incl.   11.23698     -0.45619964     -0.17272261
P   5.44
From 398 observations 2010 Nov. 28-2016 Oct. 12, mean residual 0".8.
     Nongravitational parameters A1 = -0.03, A2 = -0.1578.

  73P-BT/Schwassmann-Wachmann
T 2017 Mar. 16.95797 TT                                 MPCW
q   0.9721774            (2000.0)            P               Q
n   0.18132696     Peri.  199.51580     -0.02007287     +0.98290585
a   3.0914422      Node    69.67921     -0.88941155     +0.06605391
e   0.6855263      Incl.   11.25392     -0.45666638     -0.17185161
P   5.44
From 26 observations 2017 Feb. 10-11.

・ 星図

・ 光度変化

	C核:
        m1 =  9.7 + 5 logΔ + 16.5 log r  [   ,-76]  (              〜2016年12月30日)
        m1 = 11.2 + 5 logΔ +  6.5 log r  [-76,  0]  (2016年12月30日〜2017年 3月16日)
        m1 = 11.4 + 5 logΔ + 15.0 log r  [  0,   ]  (2017年 3月16日〜              )

	B核:
        m1 = 12.0 + 5 logΔ + 20.0 log r(t + 30)

	BT核:
        m1 = 12.0 + 5 logΔ + 20.0 log r(t + 30)

---------------------------------------------------------------------

軌道要素はM.P.E.C. 2016-V116に掲載されたものです。
BT核の軌道要素はM.P.E.C. 2017-C79に掲載されたものです。
星図はステラナビゲータ Ver.8 (アストロアーツ) で作成したものです。
光度グラフはComet for Windowsで作成したものです。

---------------------------------------------------------------------

Copyright(C) Seiichi Yoshida (comet@aerith.net). All rights reserved.